TimeEST,TemperatureF,Dew PointF,Humidity,Sea Level PressureIn,VisibilityMPH,Wind Direction,Wind SpeedMPH,Gust SpeedMPH,PrecipitationIn,Events,Conditions,WindDirDegrees,DateUTC
1:54 AM,28.0,21.9,78,30.23,9.0,Calm,Calm,-,N/A,,Overcast,0,2013-01-16 06:54:00
2:54 AM,28.0,21.9,78,30.22,9.0,Calm,Calm,-,N/A,,Overcast,0,2013-01-16 07:54:00
3:54 AM,27.0,21.9,81,30.18,9.0,Calm,Calm,-,N/A,,Overcast,0,2013-01-16 08:54:00
4:54 AM,27.0,23.0,85,30.16,1.5,Calm,Calm,-,0.00,Snow,Light Snow,0,2013-01-16 09:54:00
5:51 AM,26.6,24.8,93,30.10,0.8,Calm,Calm,-,0.02,Snow,Light Snow,0,2013-01-16 10:51:00
5:54 AM,27.0,25.0,92,30.13,0.8,Calm,Calm,-,0.03,Snow,Light Snow,0,2013-01-16 10:54:00
5:59 AM,26.6,24.8,93,30.11,1.0,Calm,Calm,-,0.00,Snow,Light Snow,0,2013-01-16 10:59:00
6:54 AM,27.0,25.0,92,30.13,1.5,Calm,Calm,-,0.03,Snow,Light Snow,0,2013-01-16 11:54:00
7:06 AM,26.6,24.8,93,30.11,2.5,Calm,Calm,-,0.00,Snow,Light Snow,0,2013-01-16 12:06:00
7:23 AM,28.4,26.6,93,30.09,1.2,Calm,Calm,-,0.01,Snow,Light Snow,0,2013-01-16 12:23:00
7:44 AM,28.4,24.8,86,30.09,0.5,Calm,Calm,-,0.02,Fog-Snow,Snow,0,2013-01-16 12:44:00
7:54 AM,28.0,26.1,92,30.12,0.5,Calm,Calm,-,0.03,Fog-Snow,Snow,0,2013-01-16 12:54:00
8:16 AM,26.6,26.6,100,30.08,0.8,Calm,Calm,-,0.01,Snow,Light Snow,0,2013-01-16 13:16:00
8:54 AM,28.0,25.0,88,30.10,0.5,Calm,Calm,-,0.03,Fog-Snow,Snow,0,2013-01-16 13:54:00
9:11 AM,28.4,26.6,93,30.07,1.0,Calm,Calm,-,0.00,Snow,Light Snow,0,2013-01-16 14:11:00
9:36 AM,28.4,24.8,86,30.02,2.0,Calm,Calm,-,0.01,Snow,Light Snow,0,2013-01-16 14:36:00
9:54 AM,28.9,25.0,85,30.05,2.5,Calm,Calm,-,0.01,Snow,Light Snow,0,2013-01-16 14:54:00
10:03 AM,28.4,24.8,86,30.02,4.0,Calm,Calm,-,0.00,Snow,Light Snow,0,2013-01-16 15:03:00
10:15 AM,28.4,24.8,86,30.02,1.8,Calm,Calm,-,0.00,Snow,Light Snow,0,2013-01-16 15:15:00
10:21 AM,28.4,24.8,86,30.02,1.2,Calm,Calm,-,0.00,Snow,Light Snow,0,2013-01-16 15:21:00
10:54 AM,28.0,26.1,92,30.01,1.0,Calm,Calm,-,0.01,Snow,Light Snow,0,2013-01-16 15:54:00
11:06 AM,28.4,26.6,93,29.97,0.8,Calm,Calm,-,0.00,Snow,Light Snow,0,2013-01-16 16:06:00
11:13 AM,28.4,26.6,93,29.97,1.0,Calm,Calm,-,0.01,Snow,Light Snow,0,2013-01-16 16:13:00
11:23 AM,28.4,26.6,93,29.96,0.8,Calm,Calm,-,0.01,Snow,Light Snow,0,2013-01-16 16:23:00
11:31 AM,28.4,26.6,93,29.96,0.5,Calm,Calm,-,0.02,Fog-Snow,Snow,0,2013-01-16 16:31:00
11:43 AM,28.4,26.6,93,29.96,0.5,Calm,Calm,-,0.02,Fog-Snow,Snow,0,2013-01-16 16:43:00
11:54 AM,28.9,26.1,89,29.97,0.8,Calm,Calm,-,0.03,Snow,Light Snow,0,2013-01-16 16:54:00
12:24 PM,28.4,26.6,93,29.93,0.8,Calm,Calm,-,0.01,Snow,Light Snow,0,2013-01-16 17:24:00
12:34 PM,28.4,26.6,93,29.93,1.0,Calm,Calm,-,0.02,Snow,Light Snow,0,2013-01-16 17:34:00
12:54 PM,28.9,26.1,89,29.95,0.8,Calm,Calm,-,0.02,Snow,Light Snow,0,2013-01-16 17:54:00
1:45 PM,28.4,26.6,93,29.86,1.0,Calm,Calm,-,0.02,Snow,Light Snow,0,2013-01-16 18:45:00
1:54 PM,28.9,26.1,89,29.89,1.5,Calm,Calm,-,0.02,Snow,Light Snow,0,2013-01-16 18:54:00
3:42 PM,28.4,26.6,93,29.85,2.0,Calm,Calm,-,0.01,Snow,Light Snow,0,2013-01-16 20:42:00
3:54 PM,28.9,27.0,92,29.87,2.5,Calm,Calm,-,0.01,Snow,Light Snow,0,2013-01-16 20:54:00
4:33 PM,28.4,26.6,93,29.84,4.0,Calm,Calm,-,0.01,,Overcast,0,2013-01-16 21:33:00
4:54 PM,28.9,27.0,92,29.86,5.0,Calm,Calm,-,0.01,Snow,Light Snow,0,2013-01-16 21:54:00
5:36 PM,28.4,26.6,93,29.82,5.0,Calm,Calm,-,0.00,Snow,Light Snow,0,2013-01-16 22:36:00
5:54 PM,28.0,27.0,96,29.84,6.0,Calm,Calm,-,0.00,,Overcast,0,2013-01-16 22:54:00
6:54 PM,28.9,27.0,92,29.85,5.0,Calm,Calm,-,N/A,,Overcast,0,2013-01-16 23:54:00
7:54 PM,28.9,27.0,92,29.84,6.0,Calm,Calm,-,N/A,,Overcast,0,2013-01-17 00:54:00
8:54 PM,28.9,27.0,92,29.83,6.0,Calm,Calm,-,N/A,,Overcast,0,2013-01-17 01:54:00
9:33 PM,28.4,26.6,93,29.80,4.0,Calm,Calm,-,N/A,,Overcast,0,2013-01-17 02:33:00
9:54 PM,28.9,27.0,92,29.82,4.0,Calm,Calm,-,N/A,,Overcast,0,2013-01-17 02:54:00
10:35 PM,26.6,26.6,100,29.80,2.0,Calm,Calm,-,N/A,,Overcast,0,2013-01-17 03:35:00
10:54 PM,27.0,25.0,92,29.82,1.5,Calm,Calm,-,N/A,,Mostly Cloudy,0,2013-01-17 03:54:00
11:01 PM,26.6,24.8,93,29.80,1.8,Calm,Calm,-,N/A,,Mostly Cloudy,0,2013-01-17 04:01:00
11:03 PM,26.6,24.8,93,29.79,2.5,Calm,Calm,-,N/A,,Mostly Cloudy,0,2013-01-17 04:03:00
11:17 PM,26.6,24.8,93,29.80,0.8,Calm,Calm,-,N/A,,Mostly Cloudy,0,2013-01-17 04:17:00
11:32 PM,24.8,23.0,93,29.79,0.2,Calm,Calm,-,N/A,Fog,Light Freezing Fog,0,2013-01-17 04:32:00
11:54 PM,26.1,24.1,92,29.82,0.2,Calm,Calm,-,N/A,Fog,Light Freezing Fog,0,2013-01-17 04:54:00